User: anonymous   Login
Location: Caltech
(34.1382°N, 118.1253°W)
Time: 13:16:02
(UTC-08:00)
Language:

RS-15 - Orbit

View from above orbital plane
View from above orbital plane
View from above satellite
View from above satellite

Ground track
Ground track

The orbit data is extracted from the following two-line orbital elements,

1 23439U 94085A   17023.72310014 -.00000042 +00000-0 +26738-4 0  9995
2 23439 064.8169 092.8313 0168023 270.3988 195.2734 11.27565672909124
Epoch (UTC): 23 January 2017 17:21:15
Eccentricity: 0.0168023
inclination: 64.8169°
perigee height: 1881 km
apogee height: 2163 km
right ascension of ascending node: 92.8313°
argument of perigee: 270.3988°
revolutions per day: 11.27565672
mean anomaly at epoch: 195.2734°
orbit number at epoch: 90912

The dashed part of the orbit path shows where the satellite is in the earth's shadow,  

DLR